[[{"header":{"parameterUnit":"m.s-1","parameterCategory":1,"la1":30.2992,"la2":30.254,"lo1":-89.0895,"lo2":-89.0443,"dy":0.0025,"dx":0.0025,"nx":19,"ny":19,"refTime":"2026-04-09T03:00:00:Z","depth":0,"parameterNumber":2,"parameterNumberName":"U-component_of_WINDS"},"data":[0,0,0,-4.0251,-4.0253,-4.0329,-4.0329,-4.0459,-4.0461,0,0,0,0,0,0,0,0,0,0,0,-4.025,-4.0251,-4.025,-4.0253,-4.0329,-4.0329,-4.0459,-4.0461,0,0,0,0,0,0,0,0,0,0,0,-4.0249,-4.0251,-4.0253,-4.0253,-4.0328,-4.0329,-4.0459,-4.0389,0,0,0,0,0,0,0,0,0,0,-4.031,-4.033,-4.025,-4.0253,-4.0254,-4.0328,-4.0329,-4.0385,-4.0394,-4.044,0,-4.0487,0,-4.0477,-4.0472,-4.0472,0,0,0,-4.0237,-4.0324,-4.0325,-4.0253,-4.0255,-4.0328,-4.029,-4.039,-4.0399,-4.0451,-4.0489,-4.0493,-4.0479,-4.0473,-4.0474,-4.0795,-4.0797,0,0,-4.0233,-4.0275,-4.0318,-4.0332,-4.0323,-4.0288,-4.0292,-4.0395,-4.0439,-4.0489,-4.0495,-4.0481,-4.0474,-4.0475,-4.0792,-4.0795,0,0,0,-4.0232,-4.0273,-4.027,-4.0328,-4.0339,-4.029,-4.0296,-4.0434,-4.043,-4.0496,-4.0482,-4.0475,-4.0477,-4.079,-4.0793,-4.0945,0,0,0,-4.0228,-4.0272,-4.0269,-4.0296,-4.0337,-4.0388,-4.0334,-4.0423,-4.0433,-4.0482,-4.0475,-4.0479,-4.0787,-4.0792,-4.0936,-4.101,0,0,0,-4.0237,-4.0273,-4.0291,-4.0298,-4.0332,-4.0385,-4.0386,-4.0424,-4.0425,-4.0473,-4.0479,-4.0786,-4.0791,-4.0927,-4.0996,-4.1106,0,0,0,-4.0259,-4.0426,-4.0294,-4.0474,-4.0332,-4.0479,-4.0385,-4.0492,-4.0551,-4.0476,-4.0788,-4.0793,-4.0924,-4.0987,-4.1097,-4.1206,-4.1256,0,0,-4.0493,-4.0455,-4.0558,-4.0442,-4.0623,-4.0464,-4.0666,-4.068,-4.0646,-4.0747,-4.0754,-4.0939,-4.0995,-4.1104,-4.1519,-4.1559,0,0,0,-4.0646,-4.072,-4.0759,-4.0817,-4.0832,-4.0849,-4.0828,-4.0833,-4.0916,-4.0707,-4.1007,-4.1039,-4.1102,-4.1152,-4.1186,-4.1236,-4.0818,-4.0818,-4.0817,-4.1037,-4.0984,-4.1149,-4.1106,-4.1163,-4.1138,-4.1179,-4.1181,-4.1112,-4.1184,-4.1213,-4.1472,-4.1532,-4.1557,-4.161,-4.1267,-4.1267,-4.1268,-4.1268,-4.1373,-4.1469,-4.1372,-4.1497,-4.144,-4.1545,-4.1527,-4.1474,-4.1563,-4.1445,-4.1497,-4.1373,-4.1602,-4.1646,-4.1279,-4.1277,-4.1276,-4.1275,-4.1274,-4.1623,-4.1659,-4.1662,-4.1739,-4.1805,-4.1754,-4.1843,-4.1788,-4.1737,-4.1788,-4.1813,-4.181,-4.18,-4.1804,-4.1805,-4.1806,-4.1806,-4.1807,-4.1808,-4.188,-4.1879,-4.1961,-4.1989,-4.2018,-4.205,-4.2026,-4.2053,-4.2068,-4.2021,-4.2021,-4.1944,-4.1635,-4.1557,-4.1821,-4.1819,-4.1817,-4.1816,-4.1815,-4.224,-4.215,-4.2277,-4.2306,-4.2334,-4.2402,-4.233,-4.2389,-4.2403,-4.2449,-4.236,-4.2141,-4.2099,-4.2072,-4.2007,-4.2372,-4.2372,-4.2372,-4.2372,-4.245,-4.2423,-4.254,-4.259,-4.2632,-4.258,-4.2724,-4.2707,-4.2675,-4.268,-4.2619,-4.253,-4.2505,-4.2477,-4.2441,-4.238,-4.2831,-4.2832,-4.2832,-4.2668,-4.2642,-4.2776,-4.2743,-4.2761,-4.2777,-4.291,-4.2971,-4.2916,-4.285,-4.2683,-4.2663,-4.2518,-4.2474,-4.2404,-4.2349,-4.2236,0,0]},{"header":{"parameterUnit":"m.s-1","parameterCategory":1,"la1":30.2992,"la2":30.254,"lo1":-89.0895,"lo2":-89.0443,"dy":0.0025,"dx":0.0025,"nx":19,"ny":19,"refTime":"2026-04-09T03:00:00:Z","depth":0,"parameterNumber":3,"parameterNumberName":"V-component_of_WINDS"},"data":[0,0,0,1.0343,1.0342,1.0302,1.0302,1.0257,1.0257,0,0,0,0,0,0,0,0,0,0,0,1.036,1.036,1.0343,1.0342,1.0302,1.0302,1.0257,1.0257,0,0,0,0,0,0,0,0,0,0,0,1.036,1.036,1.036,1.0342,1.0302,1.0302,1.0257,1.0284,0,0,0,0,0,0,0,0,0,0,1.0322,1.0344,1.036,1.036,1.0342,1.0302,1.0302,1.0286,1.0283,1.0278,0,1.0278,0,1.0267,1.0254,1.0254,0,0,0,1.0337,1.0347,1.0331,1.036,1.0341,1.0303,1.0319,1.0284,1.0281,1.0274,1.0277,1.0275,1.0266,1.0254,1.0254,1.0252,1.0252,0,0,1.0339,1.0356,1.0334,1.033,1.0339,1.032,1.0318,1.0282,1.0285,1.0277,1.0274,1.0265,1.0254,1.0253,1.0251,1.0252,0,0,0,1.0349,1.0358,1.0343,1.0332,1.0324,1.0319,1.0316,1.0286,1.028,1.0274,1.0265,1.0253,1.0253,1.0251,1.0252,1.0281,0,0,0,1.035,1.0363,1.0344,1.0353,1.0325,1.0305,1.0322,1.0283,1.0278,1.0265,1.0253,1.0253,1.0251,1.0251,1.0279,1.0291,0,0,0,1.0361,1.0364,1.0361,1.0354,1.0338,1.0306,1.0297,1.0281,1.0273,1.0254,1.0253,1.0251,1.0251,1.0278,1.0289,1.0296,0,0,0,1.0377,1.0386,1.0362,1.0368,1.0339,1.0325,1.0297,1.0285,1.0272,1.0253,1.0251,1.0252,1.0278,1.0288,1.0295,1.0305,1.0311,0,0,1.0397,1.0389,1.0391,1.0369,1.0364,1.033,1.0328,1.0298,1.028,1.0261,1.0261,1.028,1.0289,1.0296,1.0339,1.0344,0,0,0,1.0403,1.0405,1.04,1.039,1.037,1.0353,1.0323,1.0313,1.0297,1.0275,1.0284,1.0288,1.0292,1.0296,1.03,1.0301,1.0254,1.0254,1.0254,1.0455,1.0433,1.0436,1.041,1.04,1.037,1.036,1.034,1.0318,1.0321,1.0315,1.0345,1.035,1.0353,1.0355,1.0319,1.0319,1.0319,1.0319,1.0483,1.0482,1.0456,1.045,1.0426,1.0419,1.039,1.0376,1.0365,1.0347,1.0348,1.033,1.0359,1.036,1.0321,1.0321,1.0321,1.0321,1.032,1.0514,1.051,1.0499,1.0483,1.0473,1.0445,1.0437,1.0415,1.0393,1.0395,1.0387,1.0386,1.0383,1.0393,1.0393,1.0393,1.0393,1.0393,1.0393,1.055,1.0537,1.0534,1.0515,1.0506,1.0492,1.0463,1.0452,1.0435,1.0419,1.0419,1.0398,1.0367,1.0359,1.0395,1.0395,1.0394,1.0394,1.0394,1.0586,1.0575,1.057,1.0562,1.0538,1.0529,1.0502,1.0484,1.0472,1.0469,1.0447,1.0428,1.0417,1.0413,1.0407,1.0452,1.0452,1.0452,1.0452,1.0612,1.0605,1.0596,1.0584,1.057,1.0546,1.054,1.0517,1.0491,1.0482,1.0472,1.0462,1.046,1.045,1.0445,1.0439,1.0492,1.0492,1.0492,1.0633,1.0624,1.0624,1.0601,1.0581,1.0564,1.0557,1.0543,1.0511,1.0493,1.0474,1.0473,1.0456,1.0452,1.0433,1.0427,1.0414,0,0]}]]